Accueil
METAR-TAF:

METAR-TAF

Aéroports :

Meiringen, Suisse

latitude: 46-44-25N, longitude: 8-06-36E, altitude: 577 m

Observation

Le bulletin a été fait il y a 30 minutes, à 02:50 UTC
Vent 3 kt de est/sud-est, variant entre est/nord-est et sud-est
Température 4°C
Humidité 93%
Pression 1016 hPa
Visibilité 10 km ou plus
Nuages fragmentés à une hauteur de 10000 ft

METAR: LSMM 190250Z AUTO 11003KT 070V130 9999NDV BKN100 04/03 Q1016 RMK

Heure: 05:20 (03:20 UTC)


TAF: absent

Observations et prévisions météorologiques de plus de 4000 aéroports (messages METAR et TAF).

Les stations disponibles sont représentées par des disques jaunes et rouges sur la carte.

Passer la souris dessus pour voir le nom de la station.

Cliquer dessus pour voir les observations et prévisions météorologiques.

Pour changer de carte: cliquez sur les boutons verts avec une croix noire pour zoomer, sur le bouton vert avec un tiret pour effectuer un zoom arrière, ou sur les flèches vertes pour les cartes adjacentes.


METAR-TAF: